Weather History for Ft Lauderdale, FL

Change the Weather History Date:

Saturday, June 29, 2013

  Actual Average Record
Temperature  
Mean Temperature 83 °F 84 °F  
Max Temperature 89 °F 89 °F 96 °F (1924)
Min Temperature 77 °F 78 °F 67 °F (1930)
Degree Days  
Heating Degree Days 0 0  
Month to date heating degree days 0 0  
Since 1 June heating degree days 0 0  
Since 1 July heating degree days 85 112  
Cooling Degree Days 18 19  
Month to date cooling degree days 526 520  
Year to date cooling degree days 1922 1938  
Since 1 June cooling degree days 526 520  
Growing Degree Days 33 (Base 50)    
Moisture  
Dew Point 74 °F    
Average Humidity 78    
Maximum Humidity 91    
Minimum Humidity 65    
Precipitation  
Precipitation 0.24 in 0.35 in 3.73 in (2007)
Month to date precipitation 14.67 9.80  
Year to date precipitation 39.46 27.29  
Snow  
Snow 0.00 in - - ()
Month to date snowfall 0.0  
Since 1 June snowfall 0.0  
Since 1 July snowfall 0.0  
Snow Depth 0.00 in    
Sea Level Pressure  
Sea Level Pressure 29.88 in    
Wind  
Wind Speed 6 mph (SSW)    
Max Wind Speed 22 mph    
Max Gust Speed 28 mph    
Visibility 9 miles    
Events Rain , Thunderstorm    
T = Trace of Precipitation, MM = Missing Value Source: NWS Daily Summary

Daily Weather History Graph

Daily Weather History Graph

Search for Another Location

Airport:

Trip Planner

Search our weather history database for the weather conditions in past years. The results will help you decide how hot, cold, wet, or windy it might be!

Date:

Astronomy

Jun. 29, 2013 Rise Set
Actual Time 6:31 AM EDT 8:16 PM EDT
Civil Twilight 6:05 AM EDT 8:42 PM EDT
Nautical Twilight 5:34 AM EDT 9:14 PM EDT
Astronomical Twilight 5:01 AM EDT 9:47 PM EDT
Moon 12:24 AM EDT (6/29) 12:58 PM EDT (6/29)
Length of Visible Light 14h 37m
Length of Day
13h 45m
Waning Gibbous, 56% of the Moon is Illuminated
Jun 29
Waning Gibbous
Jun 30
Last Quarter
Jul 8
New
Jul 15
First Quarter
Jul 22
Full

Hourly Weather History & Observations

Time (EDT) Temp. Heat Index Dew Point Humidity Pressure Visibility Wind Dir Wind Speed Gust Speed Precip Events Conditions
12:53 AM 79.0 °F - 72.0 °F 79% 29.91 in 10.0 mi Calm Calm - N/A   Scattered Clouds
1:53 AM 80.1 °F 84.5 °F 73.9 °F 81% 29.90 in 10.0 mi Calm Calm - N/A   Partly Cloudy
2:53 AM 80.1 °F 85.1 °F 75.0 °F 85% 29.88 in 10.0 mi Calm Calm - 0.00 in   Scattered Clouds
3:53 AM 81.0 °F 86.7 °F 75.0 °F 82% 29.88 in 10.0 mi SSW 3.5 mph - N/A   Partly Cloudy
4:53 AM 80.1 °F 85.1 °F 75.0 °F 85% 29.88 in 10.0 mi SSW 9.2 mph - 0.04 in   Mostly Cloudy
5:53 AM 79.0 °F - 73.0 °F 82% 29.89 in 10.0 mi West 3.5 mph - N/A   Partly Cloudy
6:53 AM 78.1 °F - 75.0 °F 90% 29.90 in 10.0 mi NW 3.5 mph - N/A   Scattered Clouds
7:53 AM 79.0 °F - 75.0 °F 88% 29.90 in 10.0 mi Calm Calm - N/A   Scattered Clouds
8:53 AM 81.0 °F 86.2 °F 73.9 °F 79% 29.90 in 10.0 mi Calm Calm - N/A   Scattered Clouds
9:53 AM 82.9 °F 89.4 °F 73.9 °F 74% 29.90 in 10.0 mi SSE 4.6 mph - N/A   Scattered Clouds
10:53 AM 86.0 °F 93.8 °F 73.9 °F 67% 29.89 in 10.0 mi ESE 9.2 mph - N/A   Mostly Cloudy
11:53 AM 87.1 °F 96.3 °F 75.0 °F 67% 29.89 in 10.0 mi SE 12.7 mph - N/A   Mostly Cloudy
12:53 PM 88.0 °F 97.5 °F 75.0 °F 65% 29.88 in 10.0 mi SE 9.2 mph 18.4 mph N/A   Mostly Cloudy
1:53 PM 84.9 °F 95.3 °F 77.0 °F 77% 29.87 in 10.0 mi SE 15.0 mph - 0.02 in   Scattered Clouds
2:48 PM 82.4 °F 89.5 °F 75.2 °F 79% 29.86 in 6.0 mi SSE 10.4 mph - 0.12 in Rain , Thunderstorm Heavy Thunderstorms and Rain
2:53 PM 82.9 °F 90.2 °F 75.0 °F 77% 29.86 in 7.0 mi ESE 10.4 mph - 0.12 in Rain , Thunderstorm Light Thunderstorms and Rain
3:26 PM 80.6 °F 86.2 °F 75.2 °F 84% 29.86 in 7.0 mi SSW 6.9 mph - 0.03 in Rain Light Rain
3:53 PM 82.0 °F 89.4 °F 75.9 °F 82% 29.85 in 10.0 mi SSW 10.4 mph 17.3 mph 0.03 in   Partly Cloudy
4:53 PM 86.0 °F 93.8 °F 73.9 °F 67% 29.85 in 10.0 mi WSW 9.2 mph - N/A   Scattered Clouds
5:53 PM 84.0 °F 90.2 °F 73.0 °F 69% 29.87 in 10.0 mi SW 9.2 mph - N/A   Mostly Cloudy
6:53 PM 79.0 °F - 73.9 °F 84% 29.87 in 5.0 mi WSW 5.8 mph - 0.03 in Rain Light Rain
7:53 PM 80.1 °F 84.5 °F 73.9 °F 81% 29.88 in 10.0 mi WSW 5.8 mph - 0.00 in   Mostly Cloudy
8:53 PM 81.0 °F 86.7 °F 75.0 °F 82% 29.90 in 10.0 mi SSW 4.6 mph - N/A   Mostly Cloudy
9:53 PM 81.0 °F 86.7 °F 75.0 °F 82% 29.91 in 10.0 mi SSW 5.8 mph - N/A   Partly Cloudy
10:53 PM 80.1 °F 85.1 °F 75.0 °F 85% 29.91 in 10.0 mi South 5.8 mph - N/A   Partly Cloudy
11:53 PM 79.0 °F - 73.0 °F 82% 29.91 in 10.0 mi SSW 3.5 mph - N/A   Partly Cloudy